When you browse on this site, cookies collect data to enhance your experience and personalize the content and advertising you see.
Visit our Privacy Policy to learn more. By continuing to use the site, you agree to this use of cookies and data.
  • In Hungary
  • List of Countries
  • For 7 days
  • Water Temperature
  • Satellite Maps
  • Weather Map
  • News
  • Weather Widgets
  • user-avatar
    Login

    Hourly Weather Frameries

    Today, 17 January, Thursday

    Time Temperature Precipitation Wind Pressure Humidity
    00:00 +3°C° 0 mm 5 mps 746 mmHg 91%
    01:00 +3°C° 0.2 mm 5 mps 745 mmHg 92%
    02:00 +4°C° 0.2 mm 4 mps 745 mmHg 93%
    03:00 +4°C° 0.2 mm 4 mps 745 mmHg 94%
    04:00 +4°C° 0.1 mm 4 mps 745 mmHg 94%
    05:00 +2°C° 0.1 mm 5 mps 745 mmHg 94%
    06:00 +2°C° 0.1 mm 5 mps 745 mmHg 94%
    07:00 +2°C° 0.3 mm 6 mps 745 mmHg 92%
    08:00 +3°C° 0.3 mm 6 mps 745 mmHg 90%
    09:00 +3°C° 0.3 mm 7 mps 745 mmHg 88%
    10:00 +3°C° 0.5 mm 7 mps 746 mmHg 85%
    11:00 +3°C° 0.5 mm 7 mps 746 mmHg 81%
    12:00 +3°C° 0.5 mm 7 mps 747 mmHg 77%
    13:00 +3°C° 0.3 mm 6 mps 747 mmHg 76%
    14:00 +3°C° 0.3 mm 6 mps 748 mmHg 76%
    15:00 +2°C° 0.3 mm 6 mps 749 mmHg 75%
    16:00 +1°C° 0.1 mm 6 mps 750 mmHg 77%
    17:00 +1°C° 0.1 mm 5 mps 750 mmHg 78%
    18:00 0°C° 0.1 mm 5 mps 751 mmHg 79%
    19:00 0°C° 0 mm 4 mps 752 mmHg 80%
    20:00 -1°C° 0 mm 4 mps 753 mmHg 80%
    21:00 0°C° 0 mm 3 mps 753 mmHg 80%
    22:00 0°C° 0 mm 3 mps 754 mmHg 81%
    23:00 0°C° 0 mm 3 mps 754 mmHg 82%

    Tomorrow, 18 January, Friday

    Time Temperature Precipitation Wind Pressure Humidity
    00:00 -1°C° 0 mm 3 mps 755 mmHg 83%
    01:00 -1°C° 0 mm 2 mps 755 mmHg 84%
    02:00 -1°C° 0 mm 2 mps 755 mmHg 84%
    03:00 -1°C° 0 mm 2 mps 756 mmHg 85%
    04:00 -1°C° 0 mm 2 mps 756 mmHg 85%
    05:00 +1°C° 0 mm 1 mps 756 mmHg 85%
    06:00 +1°C° 0 mm 1 mps 756 mmHg 85%
    07:00 +1°C° 0 mm 1 mps 756 mmHg 83%
    08:00 +2°C° 0 mm 1 mps 757 mmHg 82%
    09:00 +2°C° 0 mm 1 mps 757 mmHg 80%
    10:00 +4°C° 0 mm 1 mps 757 mmHg 75%
    11:00 +5°C° 0 mm 1 mps 757 mmHg 70%
    12:00 +6°C° 0 mm 1 mps 757 mmHg 65%
    13:00 +5°C° 0 mm 1 mps 757 mmHg 67%
    14:00 +5°C° 0 mm 1 mps 756 mmHg 69%
    15:00 +5°C° 0 mm 1 mps 756 mmHg 71%
    16:00 +3°C° 0 mm 2 mps 756 mmHg 74%
    17:00 +2°C° 0 mm 2 mps 756 mmHg 77%
    18:00 +1°C° 0 mm 2 mps 756 mmHg 80%
    19:00 +1°C° 0 mm 2 mps 756 mmHg 80%
    20:00 -1°C° 0 mm 2 mps 756 mmHg 80%
    21:00 -1°C° 0 mm 3 mps 756 mmHg 81%
    22:00 -1°C° 0 mm 3 mps 756 mmHg 79%
    23:00 -1°C° 0 mm 3 mps 756 mmHg 78%

    Day after tomorrow, 19 January, Saturday

    Time Temperature Precipitation Wind Pressure Humidity
    00:00 -1°C° 0 mm 3 mps 755 mmHg 76%
    01:00 -2°C° 0 mm 4 mps 755 mmHg 76%
    02:00 -3°C° 0 mm 4 mps 755 mmHg 76%
    03:00 -3°C° 0 mm 4 mps 755 mmHg 76%
    04:00 -3°C° 0 mm 4 mps 754 mmHg 76%
    05:00 -3°C° 0 mm 4 mps 754 mmHg 76%
    06:00 -3°C° 0 mm 4 mps 754 mmHg 77%
    07:00 -3°C° 0 mm 4 mps 753 mmHg 75%
    08:00 -2°C° 0 mm 5 mps 753 mmHg 72%
    09:00 -2°C° 0 mm 5 mps 753 mmHg 70%
    10:00 -1°C° 0 mm 5 mps 753 mmHg 66%
    11:00 0°C° 0 mm 5 mps 752 mmHg 62%
    12:00 +1°C° 0 mm 5 mps 752 mmHg 58%
    13:00 +1°C° 0.1 mm 4 mps 752 mmHg 59%
    14:00 +1°C° 0.1 mm 4 mps 751 mmHg 60%
    15:00 +2°C° 0.1 mm 3 mps 751 mmHg 60%
    16:00 +1°C° 0.1 mm 3 mps 751 mmHg 62%
    17:00 +1°C° 0.1 mm 3 mps 751 mmHg 64%
    18:00 +1°C° 0.1 mm 3 mps 751 mmHg 66%
    19:00 +1°C° 0.1 mm 3 mps 751 mmHg 68%
    20:00 +1°C° 0.1 mm 3 mps 751 mmHg 71%
    21:00 0°C° 0.1 mm 3 mps 751 mmHg 73%
    22:00 0°C° 0.1 mm 3 mps 751 mmHg 73%
    23:00 0°C° 0.1 mm 3 mps 751 mmHg 74%

    20 January, Sunday

    Time Temperature Precipitation Wind Pressure Humidity
    00:00 0°C° 0.1 mm 3 mps 752 mmHg 74%
    01:00 0°C° 0 mm 3 mps 751 mmHg 75%
    02:00 0°C° 0 mm 3 mps 751 mmHg 76%
    03:00 +1°C° 0 mm 2 mps 751 mmHg 76%
    04:00 -1°C° 0 mm 2 mps 751 mmHg 78%
    05:00 -1°C° 0 mm 2 mps 752 mmHg 79%
    06:00 -1°C° 0 mm 2 mps 752 mmHg 80%
    07:00 -1°C° 0 mm 2 mps 752 mmHg 79%
    08:00 -1°C° 0 mm 2 mps 753 mmHg 78%
    09:00 -1°C° 0 mm 2 mps 753 mmHg 78%
    10:00 +1°C° 0 mm 2 mps 753 mmHg 78%
    11:00 +3°C° 0 mm 2 mps 753 mmHg 79%
    12:00 +4°C° 0 mm 2 mps 753 mmHg 80%
    13:00 +4°C° 0 mm 2 mps 753 mmHg 83%
    14:00 +4°C° 0 mm 2 mps 754 mmHg 86%
    15:00 +4°C° 0 mm 2 mps 754 mmHg 89%
    16:00 +3°C° 0 mm 2 mps 754 mmHg 91%
    17:00 +2°C° 0 mm 2 mps 754 mmHg 93%
    18:00 +2°C° 0 mm 2 mps 755 mmHg 95%
    19:00 +2°C° 0.2 mm 2 mps 755 mmHg 96%
    20:00 +2°C° 0.2 mm 2 mps 756 mmHg 96%
    21:00 +1°C° 0.2 mm 3 mps 756 mmHg 97%
    22:00 +1°C° 0.1 mm 3 mps 756 mmHg 97%
    23:00 +1°C° 0.1 mm 3 mps 757 mmHg 97%

    21 January, Monday

    Time Temperature Precipitation Wind Pressure Humidity
    00:00 +1°C° 0.1 mm 3 mps 757 mmHg 97%
    01:00 +2°C° 0.1 mm 3 mps 757 mmHg 95%
    02:00 +1°C° 0.1 mm 4 mps 757 mmHg 93%
    03:00 +2°C° 0.1 mm 5 mps 757 mmHg 91%
    04:00 +1°C° 0 mm 4 mps 757 mmHg 90%
    05:00 0°C° 0 mm 4 mps 757 mmHg 90%
    06:00 -2°C° 0 mm 4 mps 757 mmHg 90%
    07:00 -1°C° 0 mm 4 mps 758 mmHg 88%
    08:00 -1°C° 0 mm 4 mps 758 mmHg 87%
    09:00 -1°C° 0 mm 4 mps 758 mmHg 86%
    10:00 0°C° 0 mm 5 mps 758 mmHg 82%
    11:00 +2°C° 0 mm 5 mps 757 mmHg 78%
    12:00 +3°C° 0 mm 6 mps 757 mmHg 75%
    13:00 +2°C° 0 mm 5 mps 757 mmHg 77%
    14:00 +3°C° 0 mm 4 mps 756 mmHg 79%
    15:00 +1°C° 0 mm 4 mps 756 mmHg 81%
    16:00 +1°C° 0 mm 3 mps 756 mmHg 84%
    17:00 0°C° 0 mm 3 mps 756 mmHg 87%
    18:00 -1°C° 0 mm 2 mps 755 mmHg 91%
    19:00 -2°C° 0 mm 3 mps 755 mmHg 91%
    20:00 -2°C° 0 mm 3 mps 755 mmHg 91%
    21:00 -2°C° 0 mm 3 mps 754 mmHg 91%
    22:00 -2°C° 0 mm 3 mps 753 mmHg 89%
    23:00 -3°C° 0 mm 4 mps 752 mmHg 88%

    22 January, Tuesday

    Time Temperature Precipitation Wind Pressure Humidity
    00:00 -3°C° 0 mm 4 mps 752 mmHg 86%
    01:00 -2°C° 0 mm 4 mps 751 mmHg 85%
    02:00 -2°C° 0 mm 5 mps 750 mmHg 85%
    03:00 -2°C° 0 mm 5 mps 749 mmHg 84%
    04:00 -2°C° 0 mm 5 mps 748 mmHg 85%
    05:00 -2°C° 0 mm 5 mps 747 mmHg 86%
    06:00 -2°C° 0 mm 5 mps 746 mmHg 86%
    07:00 -3°C° 0 mm 6 mps 746 mmHg 84%
    08:00 -3°C° 0 mm 6 mps 745 mmHg 83%
    09:00 -2°C° 0 mm 6 mps 745 mmHg 81%
    10:00 -1°C° 0 mm 5 mps 745 mmHg 77%
    11:00 0°C° 0 mm 5 mps 744 mmHg 74%
    12:00 +1°C° 0 mm 5 mps 744 mmHg 70%
    13:00 +1°C° 0 mm 4 mps 743 mmHg 71%
    14:00 +1°C° 0 mm 4 mps 743 mmHg 72%
    15:00 +2°C° 0 mm 3 mps 743 mmHg 73%
    16:00 +1°C° 0 mm 3 mps 743 mmHg 76%
    17:00 0°C° 0 mm 3 mps 743 mmHg 78%
    18:00 -1°C° 0 mm 3 mps 743 mmHg 81%
    19:00 -2°C° 0 mm 3 mps 743 mmHg 81%
    20:00 -2°C° 0 mm 3 mps 743 mmHg 81%
    21:00 -2°C° 0 mm 3 mps 743 mmHg 81%
    22:00 -2°C° 0 mm 3 mps 743 mmHg 81%
    23:00 -2°C° 0 mm 3 mps 743 mmHg 81%
    Show more